Weather in Golovanovskiy

Russia / Saratov Oblast     51˚58′03″N   48˚07′10″E
temp.,
°C
wind,
m/s
gust,
m/s
humid.,
%
clouds,
%
prec.,
mm/h
press.,
hPa
HPBL,
m
17 january, sun
sun1701:00−13˚sw71490100 0.0 1008523
04:00−15˚sw7139194 0.0 1010392
07:00−17˚sw5119572 0.0 1010234
10:00−19˚wsw469647 0.0 1013120
13:00−17˚wsw46930 0.0 1014245
16:00−18˚wsw23950 0.0 101430
19:00−21˚wsw22950 0.0 101620
22:00−21˚wsw119331 0.0 101820
18 january, mon
mon1801:00−21˚n229199 0.0 101820
04:00−19˚ne349299 0.0 101879
07:00−20˚ne3393100 0.0 101863
10:00−21˚ne3594100 0.0 1018116
13:00−18˚ne4692100 0.0 1017248
16:00−17˚nne5895100 0.9 1016251
19:00−17˚nne6996100 1.6 1015286
22:00−16˚nne5996100 3.7 1014326
19 january, tue
tue1901:00−16˚nne5895100 0.9 1013302
04:00−16˚nnw3696100 1.1 1013227
07:00−16˚nnw3496100 0.2 1013152
10:00−18˚wnw239499 0.3 101425
13:00−15˚wnw349383 0.0 1014242
16:00−16˚wsw349574 0.0 101465
19:00−19˚wsw349665 0.0 101444
22:00−21˚wsw349540 0.0 101546
20 january, wed
wed2001:00−22˚wsw449528 0.0 101666
04:00−23˚wsw349552 0.0 101657
07:00−21˚wsw469891 0.1 1017186
10:00−23˚wsw469587 0.1 1018103
13:00−20˚wsw459456 0.0 1018234
16:00−21˚wsw469553 0.0 1018147
19:00−23˚wsw449554 0.0 102062
22:00−23˚w349436 0.0 102148
21 january, thu
thu2101:00−23˚w34930 0.0 102248
04:00−23˚wsw44940 0.0 102360
07:00−22˚wsw459630 0.0 102380
10:00−19˚wsw479562 0.0 1024154
13:00−16˚wsw479377 0.0 1024250
16:00−15˚wsw589389 0.0 1024247
19:00−17˚wsw4894100 0.0 1025144
22:00−15˚sw489499 0.0 1024201